Lapse_Rate
8.0 7.9 7.8 7.7 7.7 7.6 7.6 7.3 6.9 6.4 5.9 5.7 5.4 5.0 5.9 4.6 3.9 2.7 2.2 1.9 1.6 1.1 1.3 1.6 1.4 1.1 0.8 4.0 1.8 3.0 2.2 2.0 2.0 3.3 4.6 5.3 5.3 5.5 6.5 6.4 6.2 6.5 6.5 5.6 4.7 4.2 4.7
8.0 7.9 8.1 7.9 8.1 8.1 7.9 7.7 7.5 7.2 6.8 5.6 5.8 5.6 5.2 5.3 4.9 4.0 2.3 2.0 2.1 1.5 1.4 1.9 1.9 1.4 4.7 6.1 3.1 3.1 3.1 2.3 3.9 4.2 4.7 4.7 5.0 4.8 5.8 6.1 6.5 6.1 5.9 5.2 4.7 5.3 5.3
8.7 8.7 8.2 8.1 8.0 7.9 7.8 7.5 7.4 7.2 7.1 7.1 6.3 5.9 5.9 5.5 4.8 4.3 3.3 1.6 1.3 1.5 1.8 2.2 2.4 2.9 6.8 1.3 1.8 1.5 2.3 3.4 4.6 4.8 5.5 4.8 4.9 6.0 5.9 6.5 5.8 6.2 6.5 6.5 6.2 5.7 6.3
8.2 8.3 8.3 8.5 8.3 7.9 7.7 7.6 7.6 7.2 6.6 7.1 7.2 6.7 6.3 6.4 5.2 4.4 3.4 1.8 0.7 1.4 1.7 2.5 2.4 4.1 5.8 1.8 1.5 0.3 0.8 1.7 3.4 3.5 4.5 5.4 5.7 6.1 6.0 5.2 5.6 6.5 6.5 6.5 6.5 6.5 5.8
8.3 8.2 8.3 8.4 8.1 7.8 7.4 7.2 7.0 6.9 7.3 6.8 6.7 6.6 6.1 6.1 5.5 4.3 3.4 2.0 1.3 1.4 1.8 2.4 3.2 4.7 5.5 3.5 3.1 2.9 3.1 4.0 4.4 4.9 4.1 6.8 6.3 5.3 6.0 6.5 6.5 6.5 6.5 6.5 6.5 6.4 6.5
8.8 8.5 8.4 8.4 8.3 8.0 7.6 6.9 6.8 6.7 6.9 6.9 6.8 6.4 6.0 6.0 5.6 4.3 2.9 2.2 2.1 1.7 2.1 4.4 6.9 5.8 3.0 4.5 5.9 6.7 3.3 4.3 5.7 5.4 5.4 6.3 5.2 6.5 6.5 6.5 6.5 6.5 6.5 6.5 6.5 6.5 6.5
8.9 8.8 8.5 8.7 8.4 8.2 8.1 7.5 7.1 7.2 7.1 7.0 7.0 6.9 6.5 6.1 5.9 5.3 2.9 3.0 3.8 5.6 6.1 4.2 5.8 4.6 4.5 6.4 6.9 6.3 6.4 5.3 7.1 6.0 6.5 5.6 6.5 6.5 6.5 6.5 6.5 6.5 6.5 6.5 6.5 6.5 6.5
8.7 8.7 8.8 8.7 8.6 8.4 8.2 7.7 7.4 7.1 6.9 7.0 7.0 6.9 6.8 6.5 6.2 5.4 4.7 5.3 7.0 7.4 6.7 6.5 5.2 6.9 5.8 6.4 7.0 4.1 6.3 5.9 6.0 6.5 6.5 6.5 6.5 6.5 6.5 6.5 6.5 6.5 6.5 6.5 6.5 6.5 6.5
8.9 8.7 8.8 8.6 8.9 8.5 8.0 7.7 7.5 7.4 7.1 6.8 6.7 6.9 6.7 6.5 6.3 4.2 4.7 6.2 7.9 7.6 6.7 6.9 5.0 4.6 6.5 5.6 6.5 4.2 5.7 5.9 6.5 6.5 6.5 6.5 6.5 6.5 6.5 6.5 6.5 6.5 6.5 6.5 6.5 6.5 6.5
8.9 8.6 8.9 9.2 8.8 8.2 7.8 7.8 7.6 7.5 7.1 6.8 6.4 6.6 6.7 6.6 5.5 5.0 4.9 6.9 6.5 7.1 6.5 6.5 6.7 5.9 7.3 6.7 6.5 5.1 6.6 5.8 6.3 6.5 6.5 6.5 6.5 6.5 6.5 6.5 6.5 6.5 6.5 6.5 6.5 6.5 6.5
8.7 8.6 9.1 8.4 8.0 7.8 7.5 7.6 7.7 7.4 7.0 6.8 6.5 6.6 6.8 6.8 5.3 5.1 6.6 5.6 6.2 6.3 6.5 6.5 6.5 6.5 6.7 6.6 6.2 6.3 6.4 5.9 6.5 6.5 6.5 6.5 6.5 6.5 6.5 6.5 6.5 6.5 6.5 6.5 6.5 6.5 6.5
8.6 8.8 9.0 8.4 7.8 7.5 7.4 7.5 7.6 7.2 6.9 6.3 6.6 6.5 6.8 6.4 5.2 4.6 5.3 4.4 5.6 6.5 6.5 6.5 6.5 6.5 6.5 6.4 6.3 6.6 6.9 6.5 5.3 6.5 6.5 6.5 6.1 6.5 6.5 6.5 6.5 6.5 6.5 6.5 6.5 6.5 6.5
8.8 8.6 8.8 8.3 7.7 7.3 7.6 8.0 7.9 7.1 6.6 6.5 6.5 6.5 6.7 6.1 6.0 5.6 5.9 5.0 6.5 6.5 6.5 6.5 6.5 6.5 6.5 6.5 6.5 6.5 6.5 6.5 6.5 6.5 6.5 6.5 6.5 6.5 6.4 6.5 6.5 6.5 6.5 6.5 6.5 6.5 6.5
8.6 8.9 8.8 8.4 7.9 7.4 7.7 7.9 7.7 7.0 6.6 6.6 6.7 6.9 6.5 6.1 6.1 6.5 6.0 6.5 6.5 6.5 6.5 6.5 6.5 6.5 6.5 6.5 6.5 6.5 6.5 6.5 6.5 6.5 6.5 6.5 6.5 6.5 6.5 6.5 6.5 6.5 6.5 6.5 6.5 6.5 6.5
8.9 8.7 8.8 8.5 7.8 7.5 7.9 7.6 6.9 6.6 6.7 6.8 6.8 6.2 5.9 4.4 5.3 5.8 6.5 6.5 6.5 6.5 6.5 6.5 6.5 6.5 6.5 6.5 6.5 6.5 6.5 6.5 6.5 6.5 6.5 6.5 6.5 6.5 6.5 6.5 6.5 6.5 6.5 6.5 6.5 6.5 6.5
9.2 9.1 8.7 8.4 7.7 7.5 7.5 7.0 6.8 6.7 6.7 6.9 6.2 6.3 6.7 4.8 5.8 5.6 6.5 6.5 6.5 6.5 6.5 6.5 6.5 6.5 6.5 6.5 6.5 6.5 6.5 6.5 6.5 6.5 6.5 6.5 6.5 6.5 6.5 6.4 6.5 6.5 6.5 6.5 6.5 6.5 6.5
8.9 8.7 8.6 8.1 8.0 7.8 7.8 7.0 6.9 6.8 6.8 7.1 6.4 6.5 7.2 5.7 6.2 6.6 6.5 6.5 6.5 6.7 6.6 6.5 6.5 6.5 6.5 6.5 6.5 6.5 6.5 6.5 6.5 6.5 6.5 6.5 6.5 6.5 6.5 6.5 6.5 6.5 6.5 6.5 6.5 6.5 6.5
8.2 8.0 7.9 7.9 8.0 8.0 7.5 7.3 7.1 6.9 7.0 6.6 6.5 6.5 6.1 6.4 6.5 6.5 6.5 6.5 6.6 6.5 6.7 6.5 6.5 6.5 6.5 6.5 6.5 6.5 6.5 6.5 6.1 6.5 6.5 6.5 6.5 6.5 6.5 6.5 6.5 6.5 6.5 6.5 6.5 6.5 6.5
7.9 7.7 7.8 7.6 7.8 7.8 7.8 7.4 7.4 7.2 7.1 6.4 6.6 6.8 6.2 6.5 6.5 6.5 6.5 6.5 6.5 6.5 6.5 6.5 6.5 6.5 6.5 6.5 6.5 6.5 6.5 6.3 6.2 6.5 6.5 6.5 6.5 6.5 6.5 6.5 6.5 6.5 6.5 6.5 6.5 6.5 6.5
7.9 8.0 8.1 8.0 7.8 7.7 7.5 7.4 7.7 7.4 7.5 6.5 5.5 6.5 6.7 6.5 6.0 6.5 6.5 6.5 6.5 6.5 6.5 6.6 6.5 6.5 6.5 6.5 6.5 6.5 6.5 6.5 6.0 6.5 5.7 6.3 6.5 6.5 6.5 6.5 6.5 6.5 6.5 6.5 6.5 6.5 6.5
7.8 8.0 8.1 7.6 7.3 7.2 7.4 7.5 7.4 7.4 7.5 6.7 5.2 6.6 6.8 6.5 6.5 6.5 6.5 6.5 6.5 6.5 6.6 6.5 6.5 6.5 6.5 6.5 6.5 6.5 6.5 6.5 6.4 6.0 6.5 6.5 6.5 6.5 6.5 6.5 6.5 6.5 6.5 6.5 6.5 6.5 6.5
8.2 8.4 8.2 7.9 7.8 7.7 7.5 7.5 7.5 7.4 7.4 6.7 5.7 6.6 6.7 6.3 6.8 6.5 6.5 6.5 6.5 6.5 6.5 6.5 6.5 6.5 6.5 6.5 6.5 6.5 6.5 6.5 6.5 6.5 6.5 6.5 6.5 6.5 6.5 6.5 6.5 6.5 6.5 6.5 6.5 6.5 6.5
8.4 8.4 8.2 7.9 7.7 7.6 7.6 7.5 7.4 7.5 7.3 6.7 6.8 6.2 7.0 6.7 6.5 6.5 6.5 6.5 6.5 6.5 6.5 6.6 6.5 6.5 6.5 6.5 5.5 5.9 4.7 5.2 6.4 6.5 6.5 6.5 6.5 6.5 6.5 6.5 6.5 6.5 6.5 6.5 6.5 6.5 6.5
8.1 8.2 7.9 7.7 7.5 7.5 7.5 7.5 7.4 7.3 7.3 6.9 7.0 6.7 6.6 6.5 6.5 6.5 6.5 6.5 6.5 6.5 6.5 6.4 6.5 6.5 6.2 6.3 6.0 5.4 5.2 6.1 6.3 6.5 6.2 6.5 6.5 6.5 6.5 6.5 6.5 6.5 6.5 6.5 6.5 6.5 6.5
7.6 7.9 7.7 7.6 7.5 7.4 7.2 7.2 7.2 7.2 7.2 6.9 5.9 6.7 6.7 6.5 6.5 6.5 6.5 6.5 6.5 6.5 6.5 6.4 6.1 6.0 5.6 5.8 6.5 6.5 6.5 6.5 6.5 6.5 6.5 6.5 6.5 6.5 6.5 6.5 6.5 6.5 6.5 6.5 6.5 6.5 6.5
7.5 7.4 7.5 7.3 7.2 7.3 7.2 7.1 7.3 7.2 7.3 7.2 6.7 6.2 6.0 6.5 6.5 7.1 6.5 6.5 6.5 6.5 6.5 6.3 6.5 6.3 7.0 6.5 6.5 6.5 6.5 6.5 6.5 6.5 6.5 6.5 6.5 6.5 6.5 6.5 6.5 6.5 6.5 6.3 6.5 6.5 6.5
8.1 8.4 8.3 8.1 8.0 8.1 8.1 8.0 7.7 7.4 7.1 7.1 6.4 6.7 5.8 6.4 6.8 7.4 6.5 6.5 6.6 6.3 6.5 6.3 6.5 6.3 5.9 6.5 6.5 6.5 6.5 6.5 6.5 6.5 6.5 6.5 6.5 6.5 6.5 6.5 6.5 6.5 6.5 6.0 6.5 6.5 6.3
7.8 7.8 7.7 7.8 7.6 7.4 7.4 7.6 7.9 8.0 7.6 6.9 6.2 6.3 6.3 6.1 6.7 7.1 7.3 6.9 6.7 6.4 6.5 5.8 6.4 6.2 6.4 6.5 6.5 6.5 6.5 6.5 6.5 6.5 6.5 6.5 6.5 6.5 6.5 6.5 6.5 6.4 6.4 6.5 6.5 5.4 5.2
7.1 6.9 6.9 6.9 6.7 7.0 7.3 7.2 7.4 7.3 7.8 7.7 6.5 6.6 6.8 6.5 6.6 6.8 7.4 7.0 6.8 6.7 6.4 5.4 6.1 6.1 6.0 6.5 6.5 6.5 6.5 6.5 6.5 6.5 6.5 6.5 6.5 6.5 6.5 6.5 6.4 5.7 4.7 3.2 3.6 6.3 6.3
Wind_Speed
12 12 12 12 13 11 12 12 12 13 14 14 15 15 17 16 17 15 15 17 18 18 19 22 21 21 7 3 11 5 4 7 7 6 5 4 4 5 3 3 1 5 4 4 8 8 4
13 13 13 13 13 12 14 14 13 13 14 13 15 16 17 17 17 18 19 18 20 18 17 20 20 17 3 5 4 7 3 4 4 4 4 6 5 6 2 4 3 3 5 9 7 4 7
14 14 14 14 12 11 12 13 12 13 14 14 14 15 18 19 19 20 21 21 20 19 17 19 17 6 6 17 4 13 7 3 3 4 3 4 5 2 2 6 3 3 8 7 6 4 7
15 16 16 15 14 12 12 12 14 13 13 15 15 14 14 19 19 22 24 24 22 24 18 18 13 4 8 7 8 10 3 6 7 8 5 7 5 3 4 4 7 5 3 3 4 1 3
16 16 17 17 16 13 12 12 13 13 15 14 15 15 15 17 18 21 25 28 30 29 19 10 4 3 11 9 4 10 10 5 5 4 5 4 5 6 2 4 4 3 6 5 8 3 2
18 16 16 17 19 17 17 17 17 16 16 15 15 16 15 17 20 22 26 33 28 8 4 8 3 1 7 6 4 3 8 7 4 5 2 6 4 4 2 4 7 5 4 4 4 5 4
19 19 17 17 19 20 21 19 18 18 18 16 16 15 15 17 19 21 17 6 5 2 3 7 7 6 5 5 5 4 1 6 5 4 7 5 4 12 14 8 3 3 3 5 8 12 3
18 20 20 19 21 21 23 20 19 18 16 15 17 15 13 16 18 17 5 2 5 1 11 14 19 22 24 11 11 21 3 6 6 7 7 3 17 7 7 7 5 5 5 13 11 11 6
20 20 20 22 22 22 21 21 20 17 17 16 16 14 13 14 16 7 1 4 5 7 6 7 11 11 11 15 15 25 7 3 6 7 9 11 5 16 15 6 7 8 7 10 11 6 3
21 20 20 23 22 22 21 23 22 19 17 17 16 14 12 11 6 3 3 4 12 2 4 7 7 8 7 8 8 22 14 8 6 14 6 8 13 1 4 10 8 9 9 12 14 3 5
21 21 21 22 21 21 23 24 23 20 17 17 16 14 12 11 2 2 4 17 13 1 5 4 5 3 8 12 3 7 18 5 9 9 8 9 8 12 13 14 9 9 7 10 8 6 1
23 23 22 23 23 23 23 23 24 20 20 18 16 15 13 3 1 7 13 14 2 1 8 6 4 5 7 7 5 4 11 1 7 4 3 12 3 8 10 8 13 8 3 4 1 2 5
24 23 23 24 24 24 23 23 23 22 21 19 18 16 10 8 3 2 8 4 3 6 6 6 2 4 3 5 5 3 8 10 8 10 11 6 13 2 4 5 5 5 3 2 3 2 8
25 25 24 25 25 25 23 23 22 23 22 20 19 17 9 9 10 4 3 3 11 4 7 6 6 9 4 5 4 2 7 8 7 3 4 9 6 14 6 13 4 7 10 5 6 4 6
26 27 25 26 26 25 24 23 23 24 23 21 18 3 3 4 10 3 1 8 5 5 4 7 8 3 4 4 2 2 1 5 9 8 6 6 6 4 9 9 11 5 6 10 6 1 1
28 28 26 25 25 26 24 24 23 23 22 21 3 4 6 14 17 3 3 15 9 1 7 4 4 5 6 7 5 4 3 3 2 10 8 3 2 4 4 5 7 9 4 2 2 5 7
30 30 29 28 27 26 24 24 23 23 21 21 6 4 6 21 6 3 8 9 11 15 7 5 2 4 3 4 5 4 1 3 4 6 2 7 4 7 7 5 6 2 4 4 2 5 8
31 31 30 29 28 27 27 26 25 23 22 13 3 5 9 13 6 4 13 11 11 3 3 9 3 5 5 3 4 3 3 2 4 3 3 2 2 9 23 14 3 5 7 10 7 4 4
33 32 31 31 30 29 28 29 27 25 24 3 3 3 9 11 11 12 9 12 10 2 1 1 5 3 2 3 4 4 4 6 7 5 3 5 4 4 8 6 3 9 6 5 2 2 12
33 33 32 33 32 31 31 31 29 26 27 9 4 5 4 7 2 16 13 15 13 12 16 6 3 4 3 3 3 4 5 6 10 1 2 2 1 4 4 8 5 4 9 15 11 8 7
35 35 35 35 33 32 31 31 30 29 29 9 4 4 5 7 15 8 17 9 20 12 12 12 9 16 8 4 3 6 5 4 5 1 3 3 2 7 13 15 16 19 10 12 18 12 11
36 35 35 31 33 32 31 31 31 30 29 10 4 4 4 1 15 20 18 19 19 17 8 12 8 6 6 14 11 5 7 3 4 4 4 4 3 2 4 12 20 18 18 23 11 5 7
36 35 34 33 33 33 32 32 31 30 26 6 6 3 3 9 13 16 24 21 16 15 12 17 12 13 10 12 10 15 8 7 7 6 3 4 3 0 6 10 18 7 14 15 17 19 6
36 34 34 34 33 33 32 32 31 31 27 8 4 4 5 6 15 18 16 21 23 18 19 11 17 8 6 3 5 5 6 11 10 9 5 6 5 4 3 2 5 7 25 17 18 19 13
30 31 31 30 29 30 30 31 32 33 33 11 3 6 7 12 9 16 16 17 19 18 17 18 9 8 5 3 2 5 3 2 7 7 8 6 4 3 2 2 8 12 6 13 10 17 13
22 26 27 25 20 18 20 25 31 31 33 14 8 2 2 6 14 10 14 16 11 14 11 13 6 3 2 0 1 4 3 3 1 4 4 5 3 3 3 3 6 2 5 16 15 16 6
19 19 20 20 21 22 21 22 23 22 25 16 4 10 3 3 2 9 7 11 10 11 5 8 11 8 7 2 2 5 5 3 4 8 5 3 1 5 4 4 7 7 6 6 2 5 5
20 21 21 22 22 23 23 24 23 23 25 13 3 13 8 3 2 3 4 3 12 13 8 6 5 3 3 6 4 4 3 5 6 5 7 7 7 4 2 3 8 4 6 7 13 13 5
23 22 23 24 24 24 23 23 24 23 25 20 2 8 6 2 1 2 8 10 8 7 12 9 7 6 5 4 3 3 3 0 4 4 4 6 7 5 9 6 3 6 6 11 11 14 16
Wind_Direction
325 326 315 309 305 305 313 321 320 322 321 318 315 319 319 321 309 303 305 309 309 316 318 321 329 338 352 353 249 296 124 135 137 151 187 186 178 164 205 168 215 215 272 274 270 284 223
311 313 310 309 312 322 313 308 308 310 306 310 315 316 321 324 324 320 309 300 296 301 307 313 320 332 325 282 265 347 227 164 171 173 203 160 208 204 237 236 167 216 262 281 295 211 170
305 304 304 303 305 303 300 299 298 298 301 303 309 316 317 321 323 316 309 305 301 296 298 300 310 305 245 246 301 310 339 305 293 178 208 221 153 160 116 330 240 263 308 316 248 178 201
307 306 303 304 307 309 296 301 297 300 300 299 301 301 311 316 320 314 309 307 301 292 289 287 299 250 253 258 274 279 216 273 237 233 236 281 156 183 158 248 348 357 299 360 266 98 205
296 299 304 306 304 307 305 307 303 303 298 298 300 302 308 313 316 318 315 310 299 290 285 259 205 218 264 294 253 248 190 211 193 213 223 236 146 196 189 137 1 20 252 242 309 166 215
296 293 294 300 305 304 304 303 300 297 295 296 297 299 304 308 315 324 323 313 297 316 135 160 202 312 253 257 248 235 177 193 178 156 160 178 192 183 111 130 215 203 236 273 253 282 120
294 295 296 298 296 297 296 295 299 293 291 288 287 291 300 302 309 323 341 334 4 19 335 208 194 241 304 313 307 296 33 145 217 165 170 186 173 208 203 190 129 147 288 289 271 278 216
290 291 291 291 289 289 291 294 293 291 291 288 280 280 291 291 301 317 339 316 285 107 297 262 254 257 259 303 307 295 167 176 165 199 139 213 238 199 173 186 200 216 240 273 279 256 160
286 282 283 284 280 283 287 292 291 287 286 285 279 276 281 288 306 321 200 248 310 322 267 263 216 234 230 187 216 261 156 214 194 166 194 202 222 194 179 176 200 228 215 256 250 317 220
281 280 279 278 281 283 287 284 282 281 276 279 274 273 273 284 325 301 257 330 325 283 282 271 217 240 197 150 237 226 189 174 213 198 183 225 230 158 184 219 170 240 202 239 264 258 252
281 280 280 281 283 281 279 278 278 276 275 273 267 256 254 216 286 324 323 325 319 151 305 228 172 155 158 167 250 225 192 143 184 193 170 217 176 207 219 226 170 235 214 226 247 244 164
280 281 276 278 281 279 275 272 273 274 273 268 261 246 240 254 102 251 304 299 247 253 250 299 185 145 142 223 283 74 168 261 154 193 233 217 215 175 204 219 192 234 272 283 5 162 246
279 278 278 280 280 276 270 268 271 273 265 258 255 242 219 159 221 149 320 327 199 229 317 312 4 164 227 175 237 225 162 201 160 188 219 232 238 197 165 226 173 154 134 305 298 275 251
278 277 275 277 276 273 268 267 266 265 262 252 251 243 230 197 230 344 350 235 220 229 268 326 334 339 198 156 249 229 130 181 257 112 162 198 274 210 185 209 186 186 178 174 224 213 254
273 273 276 274 273 271 269 268 266 262 257 246 246 216 234 194 165 106 169 219 223 175 269 355 332 313 356 5 15 87 172 192 202 211 183 182 240 250 205 195 187 224 187 210 224 13 54
275 274 273 272 273 270 267 264 264 259 250 238 226 194 217 158 152 106 228 226 229 253 359 10 357 18 20 337 22 35 30 313 304 206 206 247 248 246 248 156 234 218 172 112 359 195 250
273 274 271 268 267 265 264 261 256 257 246 234 217 211 161 140 124 178 223 224 243 274 309 327 317 323 19 8 342 345 50 342 52 358 216 214 235 251 318 209 198 180 215 213 175 160 232
270 268 264 262 262 262 260 257 251 247 242 228 225 217 161 143 186 204 223 210 220 265 306 239 300 226 242 317 299 296 303 5 48 314 35 39 271 236 246 250 199 211 213 202 208 227 242
269 266 263 260 258 258 255 252 247 239 231 184 219 163 179 166 207 214 210 214 241 198 173 268 233 259 222 264 328 243 270 328 33 51 37 354 349 311 285 300 253 240 203 219 184 134 218
266 262 261 258 258 257 254 248 240 235 233 214 139 178 175 203 200 204 209 221 211 218 250 269 291 329 318 267 270 301 340 333 348 70 357 333 343 268 274 285 290 230 219 223 211 223 231
265 262 258 259 254 254 249 241 233 233 227 204 158 214 199 195 207 192 197 206 214 224 202 208 248 247 245 315 287 247 261 288 297 244 54 94 299 335 324 292 277 270 265 222 228 222 218
263 259 258 255 256 250 245 237 233 229 218 213 170 183 198 154 188 203 211 213 220 213 206 217 245 259 233 232 219 290 322 281 234 258 179 194 188 321 295 338 354 273 260 249 241 233 243
262 260 256 255 252 248 242 235 230 225 212 202 200 223 184 192 178 198 214 218 209 213 213 230 215 240 250 243 234 235 224 239 247 260 203 146 153 15 269 2 328 281 271 262 255 245 184
258 255 255 253 248 244 238 233 227 221 211 206 197 156 208 209 204 209 190 204 216 215 214 204 230 236 220 345 269 257 233 235 229 227 177 158 145 165 245 314 269 284 322 288 243 240 221
251 252 251 249 243 237 232 229 225 219 212 211 191 200 198 228 219 212 204 194 202 207 214 214 220 201 324 320 276 284 318 234 234 208 208 177 142 171 215 153 283 290 319 316 283 265 238
258 249 248 244 234 228 229 226 219 218 213 211 209 194 160 204 221 200 198 192 188 201 204 219 237 185 136 292 144 229 242 268 218 154 155 169 188 156 161 188 243 294 232 297 322 273 312
261 253 247 238 229 224 220 216 214 215 219 205 157 172 124 162 149 192 191 203 180 163 187 188 217 216 188 166 224 242 245 235 245 174 165 128 125 210 180 231 272 262 345 349 168 267 335
256 249 243 238 232 225 220 217 211 206 199 202 141 178 189 154 189 155 200 213 190 192 182 167 147 195 142 182 187 211 198 222 222 190 173 164 167 197 180 225 285 199 51 62 298 296 270
260 254 246 239 227 222 218 213 208 202 199 184 175 164 172 169 180 211 221 266 274 244 190 182 182 167 161 163 188 156 244 184 181 230 211 210 195 186 192 209 237 223 184 177 214 258 295